Victoria, TX

9:00 PM CST on December 15, 2019 (GMT -0600)
Victoria Regional

Weather History for KVCT - October, 2019

Change the Weather History Date:

Wednesday, October 2, 2019

  Actual Average Record
Temperature  
Mean Temperature 82 °F 76 °F  
Max Temperature 91 °F 87 °F 100 °F (1938)
Min Temperature 73 °F 65 °F 51 °F (2011)
Degree Days  
Heating Degree Days 0 0  
Month to date heating degree days 0 0  
Since 1 July heating degree days 0 1  
Cooling Degree Days 18 11  
Month to date cooling degree days 36 22  
Year to date cooling degree days 3301 2820  
Growing Degree Days 32 (Base 50)    
Moisture  
Dew Point 73 °F    
Average Humidity 78    
Maximum Humidity 94    
Minimum Humidity 52    
Precipitation  
Precipitation 0.00 in 0.14 in 1.92 in (1977)
Month to date precipitation 0.00 0.28  
Year to date precipitation 19.36 31.31  
Snow  
Snow 0.00 in 0.00 in 0.00 in (2002)
Month to date snowfall 0.0 0.0  
Since 1 July snowfall 0.0 0.0  
Since 1 September snowfall 0.0 0.0  
Snow Depth 0.00 in    
Sea Level Pressure  
Sea Level Pressure 29.95 in    
Wind  
Wind Speed 6 mph ()    
Max Wind Speed 18 mph    
Max Gust Speed 24 mph    
Visibility 7.9 miles    
Events      
T = Trace of Precipitation, MM = Missing Value Source: Averaged Metar Reports

Daily Weather History Graph

Daily Weather History Graph

Search for Another Location

Airport or City:

Astronomy

Oct. 02, 2019 Rise Set
Actual Time 7:21 AM CDT 7:12 PM CDT
Civil Twilight 6:57 AM CDT 7:36 PM CDT
Nautical Twilight 6:30 AM CDT 8:03 PM CDT
Astronomical Twilight 6:02 AM CDT 8:30 PM CDT
Moon 11:29 AM CDT (10/2) 10:27 PM CDT (10/2)
Length of Visible Light 12h 38m
Length of Day
11h 51m
Waxing Crescent, 20% of the Moon is Illuminated
Oct 2
Waxing Crescent
Oct 5
First Quarter
Oct 13
Full
Oct 21
Last Quarter
Oct 27
New

Hourly Weather History & Observations

Time (CDT) Temp. Heat Index Dew Point Humidity Pressure Visibility Wind Dir Wind Speed Gust Speed Precip Events Conditions
12:51 AM 75.9 °F - 73.0 °F 91% 29.94 in 7.0 mi ENE 3.5 mph - N/A   Partly Cloudy
1:51 AM 75.9 °F - 73.0 °F 91% 29.94 in 7.0 mi East 4.6 mph - N/A   Clear
2:51 AM 75.0 °F - 73.0 °F 94% 29.94 in 5.0 mi East 3.5 mph - N/A   Clear
4:51 AM 73.9 °F - 72.0 °F 93% 29.94 in 4.0 mi NNE 5.8 mph - N/A   Scattered Clouds
5:51 AM 73.9 °F - 72.0 °F 93% 29.95 in 4.0 mi NNE 4.6 mph - N/A   Clear
6:51 AM 73.9 °F - 72.0 °F 93% 29.96 in 4.0 mi NE 6.9 mph - N/A   Clear
7:30 AM 73.9 °F - 72.0 °F 93% 29.96 in 6.0 mi NE 5.8 mph - N/A   Clear
7:47 AM 73.4 °F - 71.6 °F 94% 29.96 in 6.0 mi NE 5.8 mph - N/A   Clear
7:51 AM 73.9 °F - 72.0 °F 93% 29.96 in 6.0 mi NE 4.6 mph - N/A   Clear
8:51 AM 78.1 °F - 75.0 °F 90% 29.98 in 5.0 mi ENE 4.6 mph - N/A   Clear
9:20 AM 81.0 °F 87.3 °F 75.9 °F 85% 29.98 in 7.0 mi ENE 5.8 mph - N/A   Clear
9:51 AM 84.0 °F 92.6 °F 75.9 °F 76% 29.98 in 8.0 mi East 5.8 mph - N/A   Partly Cloudy
10:51 AM 87.1 °F 95.4 °F 73.9 °F 65% 29.99 in 10.0 mi ESE 8.1 mph - N/A   Scattered Clouds
11:51 AM 90.0 °F 96.9 °F 72.0 °F 55% 29.98 in 10.0 mi ESE 9.2 mph - N/A   Partly Cloudy
12:51 PM 90.0 °F 96.4 °F 71.1 °F 54% 29.96 in 10.0 mi ESE 9.2 mph - N/A   Scattered Clouds
1:51 PM 90.0 °F 97.9 °F 73.0 °F 57% 29.95 in 10.0 mi East 13.8 mph - N/A   Scattered Clouds
2:51 PM 91.0 °F 97.6 °F 71.1 °F 52% 29.92 in 10.0 mi SE 9.2 mph 17.3 mph N/A   Scattered Clouds
3:51 PM 91.0 °F 97.6 °F 71.1 °F 52% 29.90 in 10.0 mi SE 12.7 mph - N/A   Scattered Clouds
4:51 PM 89.1 °F 95.0 °F 71.1 °F 55% 29.90 in 10.0 mi SE 15.0 mph - N/A   Clear
5:51 PM 88.0 °F 95.6 °F 73.0 °F 61% 29.90 in 10.0 mi SE 16.1 mph 24.2 mph N/A   Clear
6:51 PM 84.9 °F 91.4 °F 73.0 °F 67% 29.90 in 10.0 mi SE 12.7 mph - N/A   Clear
7:51 PM 82.0 °F 87.4 °F 73.0 °F 74% 29.91 in 10.0 mi SE 11.5 mph - N/A   Clear
8:51 PM 80.1 °F 84.2 °F 73.0 °F 79% 29.92 in 10.0 mi ESE 6.9 mph - N/A   Clear
9:51 PM 79.0 °F - 73.9 °F 84% 29.94 in 10.0 mi East 5.8 mph - N/A   Clear
10:51 PM 77.0 °F - 73.9 °F 90% 29.95 in 9.0 mi East 4.6 mph - N/A   Clear
11:51 PM 75.9 °F - 73.0 °F 91% 29.96 in 7.0 mi NE 5.8 mph - N/A   Clear